| time (UTC) | temp F | wind direction | speed knots | gust knots | rain 1hr in | rain 24hr in | rain mn in | humidity % | barometer mb |
| 20260506051004 | 40 | 352 | 2.6 | 7.0 | 0.00 | 0.00 | 0.00 | 85 | 1014.3 |
| 20260506050716 | 40 | 353 | 2.6 | 7.0 | 0.00 | 0.00 | 0.00 | 85 | 1014.3 |
| 20260506050217 | 40 | 355 | 2.6 | 5.2 | 0.00 | 0.00 | 0.00 | 85 | 1014.3 |
| 20260506044718 | 40 | 357 | 2.6 | 5.2 | 0.00 | 0.00 | 0.00 | 85 | 1014.3 |
| 20260506044003 | 40 | 352 | 1.7 | 5.2 | 0.00 | 0.00 | 0.00 | 85 | 1014.2 |
| 20260506043718 | 40 | 346 | 1.7 | 4.3 | 0.00 | 0.00 | 0.00 | 85 | 1014.3 |
| 20260506043004 | 40 | 333 | 1.7 | 3.5 | 0.00 | 0.00 | 0.00 | 85 | 1014.2 |
| 20260506042504 | 40 | 339 | 1.7 | 4.3 | 0.00 | 0.00 | 0.00 | 85 | 1014.4 |
| 20260506042217 | 40 | 343 | 1.7 | 4.3 | 0.00 | 0.00 | 0.00 | 85 | 1014.3 |
| 20260506041718 | 40 | 345 | 1.7 | 4.3 | 0.00 | 0.00 | 0.00 | 84 | 1014.3 |
| 20260506041003 | 41 | 358 | 0.9 | 3.5 | 0.00 | 0.00 | 0.00 | 84 | 1014.3 |
| 20260506040504 | 41 | 358 | 0.9 | 4.3 | 0.00 | 0.00 | 0.00 | 83 | 1014.3 |
| 20260506040004 | 41 | 356 | 0.9 | 4.3 | 0.00 | 0.00 | 0.00 | 83 | 1014.4 |
| 20260506035503 | 42 | 357 | 1.7 | 4.3 | 0.00 | 0.00 | 0.00 | 83 | 1014.4 |
| 20260506035217 | 42 | 358 | 1.7 | 4.3 | 0.00 | 0.00 | 0.00 | 83 | 1014.3 |
| 20260506034503 | 42 | 360 | 1.7 | 4.3 | 0.00 | 0.00 | 0.00 | 82 | 1014.4 |
| 20260506034003 | 42 | 357 | 1.7 | 3.5 | 0.00 | 0.00 | 0.00 | 82 | 1014.4 |
| 20260506033503 | 43 | 353 | 1.7 | 6.1 | 0.00 | 0.00 | 0.00 | 82 | 1014.4 |
| 20260506033005 | 43 | 348 | 1.7 | 6.1 | 0.00 | 0.00 | 0.00 | 81 | 1014.4 |
| 20260506032504 | 43 | 348 | 1.7 | 4.3 | 0.00 | 0.00 | 0.00 | 81 | 1014.5 |
| 20260506032003 | 43 | 356 | 1.7 | 4.3 | 0.00 | 0.00 | 0.00 | 82 | 1014.5 |
| 20260506031503 | 43 | 359 | 1.7 | 4.3 | 0.00 | 0.00 | 0.00 | 82 | 1014.5 |
| 20260506031004 | 44 | 2 | 1.7 | 4.3 | 0.00 | 0.00 | 0.00 | 82 | 1014.5 |
| 20260506030503 | 44 | 6 | 1.7 | 4.3 | 0.00 | 0.00 | 0.00 | 82 | 1014.6 |
| 20260506030004 | 44 | 359 | 1.7 | 4.3 | 0.00 | 0.00 | 0.00 | 81 | 1014.5 |
| 20260506025504 | 44 | 2 | 1.7 | 7.8 | 0.00 | 0.00 | 0.00 | 81 | 1014.5 |
| 20260506025003 | 44 | 4 | 2.6 | 7.8 | 0.00 | 0.00 | 0.00 | 81 | 1014.4 |
| 20260506024504 | 44 | 1 | 1.7 | 5.2 | 0.00 | 0.00 | 0.00 | 82 | 1014.4 |
| 20260506024218 | 44 | 1 | 2.6 | 4.3 | 0.00 | 0.00 | 0.00 | 82 | 1014.4 |
| 20260506023717 | 44 | 359 | 2.6 | 7.8 | 0.00 | 0.00 | 0.00 | 81 | 1014.5 |
| 20260506023004 | 44 | 356 | 2.6 | 7.8 | 0.00 | 0.00 | 0.00 | 81 | 1014.5 |
| 20260506022503 | 44 | 356 | 2.6 | 7.8 | 0.00 | 0.00 | 0.00 | 81 | 1014.5 |
| 20260506022003 | 44 | 357 | 3.5 | 7.8 | 0.00 | 0.00 | 0.00 | 81 | 1014.4 |
| 20260506021503 | 44 | 358 | 3.5 | 7.8 | 0.00 | 0.00 | 0.00 | 81 | 1014.5 |
| 20260506021003 | 44 | 2 | 2.6 | 8.7 | 0.00 | 0.00 | 0.00 | 81 | 1014.5 |
| 20260506020717 | 44 | 2 | 2.6 | 8.7 | 0.00 | 0.00 | 0.00 | 81 | 1014.5 |
| 20260506020218 | 44 | 358 | 3.5 | 11.3 | 0.00 | 0.00 | 0.00 | 81 | 1014.6 |
| 20260506015504 | 44 | 4 | 2.6 | 11.3 | 0.00 | 0.00 | 0.00 | 81 | 1014.6 |
| 20260506015003 | 44 | 7 | 1.7 | 6.1 | 0.00 | 0.00 | 0.00 | 81 | 1014.6 |
| 20260506014504 | 44 | 4 | 2.6 | 6.1 | 0.00 | 0.00 | 0.00 | 81 | 1014.6 |
| 20260506014004 | 44 | 6 | 2.6 | 6.1 | 0.00 | 0.00 | 0.00 | 81 | 1014.6 |
| 20260506013719 | 44 | 10 | 2.6 | 6.1 | 0.00 | 0.00 | 0.00 | 81 | 1014.6 |
| 20260506013004 | 45 | 2 | 2.6 | 7.8 | 0.00 | 0.00 | 0.00 | 81 | 1014.7 |
| 20260506012504 | 45 | 1 | 2.6 | 7.8 | 0.00 | 0.00 | 0.00 | 81 | 1014.6 |
| 20260506012218 | 45 | 360 | 2.6 | 7.8 | 0.00 | 0.00 | 0.00 | 80 | 1014.7 |
| 20260506011504 | 45 | 2 | 2.6 | 7.8 | 0.00 | 0.00 | 0.00 | 80 | 1014.7 |
| 20260506011003 | 45 | 355 | 3.5 | 8.7 | 0.00 | 0.00 | 0.00 | 80 | 1014.7 |
| 20260506010503 | 45 | 357 | 3.5 | 8.7 | 0.00 | 0.00 | 0.00 | 80 | 1014.7 |
| 20260506010003 | 45 | 2 | 2.6 | 9.6 | 0.00 | 0.00 | 0.00 | 80 | 1014.7 |
| 20260506005504 | 45 | 6 | 2.6 | 9.6 | 0.00 | 0.00 | 0.00 | 80 | 1014.7 |
| 20260506005003 | 45 | 4 | 1.7 | 7.0 | 0.00 | 0.00 | 0.00 | 79 | 1014.6 |
| 20260506004504 | 45 | 356 | 2.6 | 7.0 | 0.00 | 0.00 | 0.00 | 79 | 1014.7 |
| 20260506004004 | 45 | 4 | 2.6 | 7.8 | 0.00 | 0.00 | 0.00 | 79 | 1014.7 |
| 20260506003503 | 45 | 9 | 2.6 | 7.8 | 0.00 | 0.00 | 0.00 | 79 | 1014.7 |
| 20260506003003 | 45 | 2 | 2.6 | 7.8 | 0.00 | 0.00 | 0.00 | 78 | 1014.8 |
| 20260506002504 | 45 | 6 | 2.6 | 8.7 | 0.00 | 0.00 | 0.00 | 78 | 1014.9 |
| 20260506002004 | 45 | 8 | 3.5 | 9.6 | 0.00 | 0.00 | 0.00 | 78 | 1014.9 |
| 20260506001504 | 45 | 3 | 3.5 | 9.6 | 0.00 | 0.00 | 0.00 | 78 | 1014.9 |
| 20260506001218 | 45 | 359 | 2.6 | 7.8 | 0.00 | 0.00 | 0.00 | 78 | 1014.8 |
| 20260506000503 | 45 | 358 | 2.6 | 7.8 | 0.00 | 0.00 | 0.00 | 77 | 1014.8 |
| 20260506000003 | 46 | 358 | 1.7 | 7.0 | 0.00 | 0.00 | 0.00 | 78 | 1014.8 |
| 20260505235504 | 46 | 8 | 2.6 | 7.0 | 0.00 | 0.00 | 0.00 | 77 | 1014.8 |
| 20260505235003 | 46 | 5 | 3.5 | 7.8 | 0.00 | 0.00 | 0.00 | 77 | 1014.9 |
| 20260505234504 | 46 | 359 | 3.5 | 7.8 | 0.00 | 0.00 | 0.00 | 77 | 1014.8 |
| 20260505234003 | 46 | 6 | 2.6 | 7.0 | 0.00 | 0.00 | 0.00 | 76 | 1014.8 |
| 20260505233503 | 46 | 12 | 2.6 | 5.2 | 0.00 | 0.00 | 0.00 | 76 | 1014.9 |
| 20260505233219 | 46 | 12 | 2.6 | 7.0 | 0.00 | 0.00 | 0.00 | 76 | 1014.9 |
| 20260505232504 | 46 | 8 | 2.6 | 7.8 | 0.00 | 0.00 | 0.00 | 76 | 1014.9 |
| 20260505232003 | 46 | 5 | 2.6 | 7.8 | 0.00 | 0.00 | 0.00 | 75 | 1015.0 |
| 20260505231503 | 46 | 7 | 2.6 | 7.0 | 0.00 | 0.00 | 0.00 | 75 | 1015.0 |
| 20260505231004 | 46 | 9 | 3.5 | 7.8 | 0.00 | 0.00 | 0.00 | 75 | 1015.0 |
| 20260505230503 | 46 | 11 | 3.5 | 7.8 | 0.00 | 0.00 | 0.00 | 74 | 1015.1 |
| 20260505230003 | 46 | 7 | 3.5 | 7.0 | 0.00 | 0.00 | 0.00 | 74 | 1015.1 |
| 20260505225718 | 46 | 5 | 3.5 | 10.4 | 0.00 | 0.00 | 0.00 | 74 | 1015.0 |
| 20260505225004 | 46 | 8 | 2.6 | 10.4 | 0.00 | 0.00 | 0.00 | 74 | 1015.1 |
| 20260505224503 | 46 | 10 | 2.6 | 7.0 | 0.00 | 0.00 | 0.00 | 74 | 1015.1 |
| 20260505224219 | 46 | 14 | 3.5 | 8.7 | 0.00 | 0.00 | 0.00 | 73 | 1015.0 |
| 20260505223504 | 47 | 15 | 3.5 | 9.6 | 0.00 | 0.00 | 0.00 | 73 | 1015.0 |
| 20260505223219 | 46 | 13 | 3.5 | 9.6 | 0.00 | 0.00 | 0.00 | 73 | 1015.0 |
| 20260505222503 | 47 | 8 | 3.5 | 10.4 | 0.00 | 0.00 | 0.00 | 72 | 1015.1 |
| 20260505222004 | 47 | 10 | 4.3 | 10.4 | 0.00 | 0.00 | 0.00 | 72 | 1015.0 |
| 20260505221504 | 47 | 10 | 3.5 | 9.6 | 0.00 | 0.00 | 0.00 | 72 | 1015.0 |
| 20260505221004 | 47 | 1 | 3.5 | 9.6 | 0.00 | 0.00 | 0.00 | 72 | 1015.1 |
| 20260505220503 | 47 | 359 | 3.5 | 9.6 | 0.00 | 0.00 | 0.00 | 72 | 1015.1 |
| 20260505220217 | 47 | 6 | 3.5 | 9.6 | 0.00 | 0.00 | 0.00 | 72 | 1015.1 |
| 20260505215503 | 47 | 13 | 3.5 | 8.7 | 0.00 | 0.00 | 0.00 | 72 | 1015.1 |
| 20260505215003 | 47 | 16 | 3.5 | 8.7 | 0.00 | 0.00 | 0.00 | 72 | 1015.2 |
| 20260505214503 | 47 | 19 | 3.5 | 8.7 | 0.00 | 0.00 | 0.00 | 72 | 1015.2 |
| 20260505214218 | 47 | 20 | 3.5 | 9.6 | 0.00 | 0.00 | 0.00 | 73 | 1015.3 |
| 20260505213717 | 48 | 23 | 4.3 | 9.6 | 0.00 | 0.00 | 0.00 | 73 | 1015.3 |
| 20260505213004 | 48 | 29 | 4.3 | 10.4 | 0.00 | 0.00 | 0.00 | 73 | 1015.1 |
| 20260505212504 | 48 | 25 | 4.3 | 10.4 | 0.00 | 0.00 | 0.00 | 74 | 1015.2 |
| 20260505212003 | 48 | 21 | 4.3 | 10.4 | 0.00 | 0.00 | 0.00 | 75 | 1015.2 |
| 20260505211504 | 48 | 12 | 4.3 | 10.4 | 0.00 | 0.00 | 0.00 | 75 | 1015.2 |
| 20260505211218 | 48 | 11 | 3.5 | 10.4 | 0.00 | 0.00 | 0.00 | 76 | 1015.1 |
| 20260505210503 | 48 | 24 | 2.6 | 8.7 | 0.00 | 0.00 | 0.00 | 76 | 1015.1 |
| 20260505210218 | 48 | 20 | 2.6 | 8.7 | 0.00 | 0.00 | 0.00 | 77 | 1015.1 |
| 20260505205504 | 49 | 11 | 2.6 | 7.8 | 0.00 | 0.00 | 0.00 | 77 | 1015.1 |
| 20260505205003 | 49 | 12 | 2.6 | 7.8 | 0.00 | 0.00 | 0.00 | 76 | 1015.1 |
| 20260505204503 | 49 | 18 | 1.7 | 6.1 | 0.00 | 0.00 | 0.00 | 76 | 1015.0 |
| 20260505204003 | 49 | 33 | 0.9 | 3.5 | 0.00 | 0.00 | 0.00 | 76 | 1015.1 |
| 20260505203503 | 49 | 33 | 1.7 | 8.7 | 0.00 | 0.00 | 0.00 | 75 | 1015.0 |
| 20260505203004 | 49 | 32 | 1.7 | 8.7 | 0.00 | 0.00 | 0.00 | 75 | 1015.0 |
| 20260505202503 | 49 | 45 | 1.7 | 6.1 | 0.00 | 0.00 | 0.00 | 74 | 1015.0 |
| 20260505202003 | 49 | 47 | 1.7 | 6.1 | 0.00 | 0.00 | 0.00 | 73 | 1014.9 |
| 20260505201504 | 49 | 38 | 1.7 | 5.2 | 0.00 | 0.00 | 0.00 | 72 | 1014.8 |
| 20260505201003 | 50 | 44 | 1.7 | 6.1 | 0.00 | 0.00 | 0.00 | 72 | 1014.7 |
| 20260505200504 | 50 | 40 | 1.7 | 7.0 | 0.00 | 0.00 | 0.00 | 72 | 1014.7 |
| 20260505200003 | 50 | 29 | 0.9 | 7.0 | 0.00 | 0.00 | 0.00 | 72 | 1014.7 |
| 20260505195503 | 50 | 34 | 0.9 | 6.1 | 0.00 | 0.00 | 0.00 | 72 | 1014.6 |
| 20260505195003 | 50 | 39 | 1.7 | 6.1 | 0.00 | 0.00 | 0.00 | 71 | 1014.6 |
| 20260505194503 | 50 | 36 | 1.7 | 5.2 | 0.00 | 0.00 | 0.00 | 71 | 1014.5 |
| 20260505194003 | 50 | 36 | 1.7 | 5.2 | 0.00 | 0.00 | 0.00 | 71 | 1014.5 |
| 20260505193503 | 50 | 39 | 2.6 | 10.4 | 0.00 | 0.00 | 0.00 | 71 | 1014.5 |
| 20260505193004 | 50 | 35 | 2.6 | 10.4 | 0.00 | 0.00 | 0.00 | 71 | 1014.4 |
| 20260505192504 | 50 | 34 | 2.6 | 7.8 | 0.00 | 0.00 | 0.00 | 71 | 1014.4 |
| 20260505192003 | 50 | 37 | 2.6 | 10.4 | 0.00 | 0.00 | 0.00 | 72 | 1014.3 |
| 20260505191503 | 51 | 30 | 2.6 | 10.4 | 0.00 | 0.00 | 0.00 | 73 | 1014.2 |
| 20260505191003 | 51 | 19 | 2.6 | 7.0 | 0.00 | 0.00 | 0.00 | 78 | 1014.2 |
| 20260505190717 | 51 | 22 | 2.6 | 7.0 | 0.00 | 0.00 | 0.00 | 78 | 1014.1 |
| 20260505190003 | 51 | 28 | 1.7 | 4.3 | 0.00 | 0.00 | 0.00 | 79 | 1014.0 |
| 20260505185504 | 51 | 26 | 2.6 | 6.1 | 0.00 | 0.00 | 0.00 | 79 | 1014.0 |
| 20260505185218 | 51 | 30 | 2.6 | 6.1 | 0.00 | 0.00 | 0.00 | 79 | 1014.0 |
| 20260505184503 | 51 | 31 | 2.6 | 7.8 | 0.00 | 0.00 | 0.00 | 79 | 1014.0 |
| 20260505184003 | 51 | 30 | 2.6 | 7.8 | 0.00 | 0.00 | 0.00 | 79 | 1014.0 |
| 20260505183504 | 51 | 34 | 2.6 | 7.8 | 0.00 | 0.00 | 0.00 | 78 | 1013.9 |
| 20260505183003 | 52 | 29 | 3.5 | 7.8 | 0.00 | 0.00 | 0.00 | 78 | 1013.8 |
| 20260505182504 | 52 | 32 | 2.6 | 7.8 | 0.00 | 0.00 | 0.00 | 78 | 1013.8 |
| 20260505182003 | 52 | 38 | 2.6 | 6.1 | 0.00 | 0.00 | 0.00 | 78 | 1013.7 |
| 20260505181503 | 52 | 38 | 2.6 | 7.8 | 0.00 | 0.00 | 0.00 | 78 | 1013.7 |
| 20260505181003 | 52 | 40 | 2.6 | 7.8 | 0.00 | 0.00 | 0.00 | 77 | 1013.7 |
| 20260505180503 | 52 | 29 | 3.5 | 10.4 | 0.00 | 0.00 | 0.00 | 77 | 1013.7 |
| 20260505180003 | 52 | 23 | 3.5 | 10.4 | 0.00 | 0.00 | 0.00 | 76 | 1013.7 |
| 20260505175718 | 52 | 22 | 2.6 | 10.4 | 0.00 | 0.00 | 0.00 | 77 | 1013.7 |
| 20260505175003 | 52 | 28 | 3.5 | 9.6 | 0.00 | 0.00 | 0.00 | 76 | 1013.7 |
| 20260505174504 | 53 | 21 | 3.5 | 10.4 | 0.00 | 0.00 | 0.00 | 76 | 1013.7 |
| 20260505174217 | 53 | 19 | 3.5 | 10.4 | 0.00 | 0.00 | 0.00 | 76 | 1013.6 |
| 20260505173503 | 53 | 24 | 4.3 | 10.4 | 0.00 | 0.00 | 0.00 | 75 | 1013.6 |
| 20260505173003 | 53 | 33 | 4.3 | 10.4 | 0.00 | 0.00 | 0.00 | 74 | 1013.6 |
| 20260505172504 | 53 | 34 | 4.3 | 10.4 | 0.00 | 0.00 | 0.00 | 74 | 1013.6 |
| 20260505172003 | 54 | 35 | 4.3 | 10.4 | 0.00 | 0.00 | 0.00 | 74 | 1013.5 |
| 20260505171503 | 54 | 28 | 4.3 | 9.6 | 0.00 | 0.00 | 0.00 | 74 | 1013.6 |
| 20260505171004 | 54 | 23 | 4.3 | 10.4 | 0.00 | 0.00 | 0.00 | 73 | 1013.6 |
| 20260505170503 | 55 | 26 | 4.3 | 10.4 | 0.00 | 0.00 | 0.00 | 72 | 1013.5 |
| 20260505170003 | 55 | 29 | 4.3 | 9.6 | 0.00 | 0.00 | 0.00 | 71 | 1013.4 |
| 20260505165503 | 56 | 25 | 4.3 | 9.6 | 0.00 | 0.00 | 0.00 | 69 | 1013.4 |
| 20260505165003 | 56 | 4 | 4.3 | 8.7 | 0.00 | 0.00 | 0.00 | 65 | 1013.3 |
| 20260505164503 | 57 | 353 | 3.5 | 7.8 | 0.00 | 0.00 | 0.00 | 55 | 1013.3 |
| 20260505164003 | 57 | 354 | 3.5 | 7.8 | 0.00 | 0.00 | 0.00 | 55 | 1013.2 |
| 20260505163504 | 57 | 351 | 3.5 | 7.0 | 0.00 | 0.00 | 0.00 | 55 | 1013.2 |
| 20260505163004 | 57 | 357 | 3.5 | 8.7 | 0.00 | 0.00 | 0.00 | 56 | 1013.2 |
| 20260505162503 | 57 | 358 | 3.5 | 8.7 | 0.00 | 0.00 | 0.00 | 56 | 1013.3 |
| 20260505162004 | 57 | 356 | 3.5 | 7.8 | 0.00 | 0.00 | 0.00 | 57 | 1013.4 |
| 20260505161503 | 57 | 354 | 3.5 | 7.0 | 0.00 | 0.00 | 0.00 | 57 | 1013.3 |
| 20260505161003 | 57 | 358 | 3.5 | 7.8 | 0.00 | 0.00 | 0.00 | 56 | 1013.3 |
| 20260505160504 | 57 | 4 | 3.5 | 9.6 | 0.00 | 0.00 | 0.00 | 57 | 1013.2 |
| 20260505153004 | 58 | 1 | 3.5 | 7.8 | 0.00 | 0.00 | 0.00 | 56 | 1013.4 |
| 20260505152503 | 58 | 358 | 3.5 | 7.8 | 0.00 | 0.00 | 0.00 | 55 | 1013.3 |
| 20260505152004 | 59 | 360 | 3.5 | 7.8 | 0.00 | 0.00 | 0.00 | 56 | 1013.3 |
| 20260505151717 | 59 | 1 | 4.3 | 10.4 | 0.00 | 0.00 | 0.00 | 56 | 1013.3 |
| 20260505151004 | 59 | 3 | 4.3 | 10.4 | 0.00 | 0.00 | 0.00 | 54 | 1013.2 |
| 20260505150504 | 59 | 9 | 2.6 | 6.1 | 0.00 | 0.00 | 0.00 | 56 | 1013.2 |
| 20260505140503 | 59 | 10 | 2.6 | 6.1 | 0.00 | 0.00 | 0.00 | 54 | 1013.1 |
| 20260505125004 | 58 | 355 | 3.5 | 7.8 | 0.00 | 0.00 | 0.00 | 57 | 1013.4 |
| 20260505124504 | 58 | 347 | 2.6 | 7.8 | 0.00 | 0.00 | 0.00 | 57 | 1013.4 |
| 20260505124004 | 58 | 342 | 2.6 | 7.0 | 0.00 | 0.00 | 0.00 | 56 | 1013.4 |
| 20260505123503 | 58 | 343 | 3.5 | 8.7 | 0.00 | 0.00 | 0.00 | 56 | 1013.5 |
| 20260505123003 | 58 | 345 | 3.5 | 8.7 | 0.00 | 0.00 | 0.00 | 56 | 1013.5 |
| 20260505122503 | 58 | 344 | 2.6 | 7.0 | 0.00 | 0.00 | 0.00 | 57 | 1013.5 |
| 20260505122004 | 58 | 346 | 2.6 | 6.1 | 0.00 | 0.00 | 0.00 | 56 | 1013.4 |
| 20260505121504 | 58 | 353 | 2.6 | 6.1 | 0.00 | 0.00 | 0.00 | 57 | 1013.4 |
| 20260505121004 | 58 | 356 | 2.6 | 6.1 | 0.00 | 0.00 | 0.00 | 57 | 1013.4 |
| 20260505120718 | 58 | 349 | 2.6 | 6.1 | 0.00 | 0.00 | 0.00 | 56 | 1013.4 |
| 20260505120004 | 58 | 344 | 1.7 | 6.1 | 0.00 | 0.00 | 0.00 | 58 | 1013.4 |
| 20260505115504 | 58 | 349 | 1.7 | 7.0 | 0.00 | 0.00 | 0.00 | 59 | 1013.4 |
| 20260505115217 | 58 | 343 | 2.6 | 7.0 | 0.00 | 0.00 | 0.00 | 57 | 1013.4 |
| 20260505114503 | 58 | 343 | 2.6 | 7.0 | 0.00 | 0.00 | 0.00 | 57 | 1013.5 |
| 20260505114217 | 58 | 341 | 2.6 | 7.0 | 0.00 | 0.00 | 0.00 | 58 | 1013.5 |
| 20260505113504 | 58 | 346 | 1.7 | 6.1 | 0.00 | 0.00 | 0.00 | 58 | 1013.5 |
| 20260505113004 | 58 | 2 | 1.7 | 5.2 | 0.00 | 0.00 | 0.00 | 57 | 1013.5 |
| 20260505112503 | 58 | 22 | 1.7 | 4.3 | 0.00 | 0.00 | 0.00 | 60 | 1013.5 |
| 20260505112004 | 57 | 10 | 1.7 | 6.1 | 0.00 | 0.00 | 0.00 | 60 | 1013.6 |
| 20260505111504 | 57 | 342 | 1.7 | 7.8 | 0.00 | 0.00 | 0.00 | 60 | 1013.5 |
| 20260505111003 | 57 | 341 | 2.6 | 7.8 | 0.00 | 0.00 | 0.00 | 59 | 1013.5 |
| 20260505110503 | 57 | 352 | 2.6 | 7.0 | 0.00 | 0.00 | 0.00 | 59 | 1013.7 |
| 20260505102004 | 58 | 17 | 2.6 | 4.3 | 0.00 | 0.00 | 0.00 | 62 | 1013.8 |
| 20260505101503 | 58 | 3 | 3.5 | 7.8 | 0.00 | 0.00 | 0.00 | 61 | 1013.7 |
| 20260505101218 | 58 | 355 | 3.5 | 7.8 | 0.00 | 0.00 | 0.00 | 61 | 1013.8 |
| 20260505100504 | 58 | 358 | 2.6 | 9.6 | 0.00 | 0.00 | 0.00 | 62 | 1013.9 |
| 20260505100218 | 58 | 7 | 2.6 | 9.6 | 0.00 | 0.00 | 0.00 | 61 | 1013.8 |
| 20260505095503 | 58 | 354 | 3.5 | 8.7 | 0.00 | 0.00 | 0.00 | 59 | 1013.9 |
| 20260505095004 | 58 | 357 | 3.5 | 8.7 | 0.00 | 0.00 | 0.00 | 58 | 1013.9 |
| 20260505094717 | 59 | 355 | 3.5 | 7.0 | 0.00 | 0.00 | 0.00 | 59 | 1013.9 |
| 20260505094004 | 58 | 348 | 2.6 | 7.0 | 0.00 | 0.00 | 0.00 | 61 | 1013.9 |
| 20260505093504 | 58 | 360 | 2.6 | 7.8 | 0.00 | 0.00 | 0.00 | 61 | 1013.9 |
| 20260505093003 | 58 | 20 | 2.6 | 7.8 | 0.00 | 0.00 | 0.00 | 61 | 1013.9 |
| 20260505092719 | 58 | 11 | 2.6 | 7.8 | 0.00 | 0.00 | 0.00 | 62 | 1013.8 |
| 20260505092218 | 57 | 356 | 2.6 | 7.0 | 0.00 | 0.00 | 0.00 | 65 | 1013.9 |
| 20260505091503 | 57 | 357 | 2.6 | 7.8 | 0.00 | 0.00 | 0.00 | 64 | 1013.8 |
| 20260505091218 | 57 | 353 | 3.5 | 7.8 | 0.00 | 0.00 | 0.00 | 64 | 1013.7 |
| 20260505090504 | 57 | 343 | 3.5 | 7.0 | 0.00 | 0.00 | 0.00 | 64 | 1013.8 |
| 20260505090005 | 57 | 336 | 2.6 | 7.0 | 0.00 | 0.00 | 0.00 | 64 | 1013.8 |
| 20260505085719 | 57 | 342 | 2.6 | 7.8 | 0.00 | 0.00 | 0.00 | 65 | 1013.7 |
| 20260505085003 | 56 | 358 | 2.6 | 7.8 | 0.00 | 0.00 | 0.00 | 66 | 1013.9 |
| 20260505084503 | 56 | 6 | 2.6 | 6.1 | 0.00 | 0.00 | 0.00 | 68 | 1013.9 |
| 20260505084004 | 56 | 4 | 3.5 | 7.0 | 0.00 | 0.00 | 0.00 | 68 | 1013.8 |
| 20260505083503 | 55 | 6 | 3.5 | 8.7 | 0.00 | 0.00 | 0.00 | 69 | 1013.8 |
| 20260505083004 | 55 | 11 | 3.5 | 8.7 | 0.00 | 0.00 | 0.00 | 68 | 1013.9 |
| 20260505082503 | 55 | 1 | 3.5 | 7.8 | 0.00 | 0.00 | 0.00 | 70 | 1014.0 |
| 20260505082004 | 54 | 360 | 3.5 | 7.8 | 0.00 | 0.00 | 0.00 | 72 | 1014.0 |
| 20260505081504 | 54 | 5 | 2.6 | 7.8 | 0.00 | 0.00 | 0.00 | 72 | 1014.0 |
| 20260505081003 | 54 | 359 | 2.6 | 7.0 | 0.00 | 0.00 | 0.00 | 74 | 1014.0 |
| 20260505080716 | 53 | 358 | 2.6 | 7.0 | 0.00 | 0.00 | 0.00 | 75 | 1014.0 |
| 20260505080004 | 52 | 8 | 3.5 | 7.0 | 0.00 | 0.00 | 0.00 | 77 | 1014.0 |
| 20260505075716 | 52 | 7 | 3.5 | 7.0 | 0.00 | 0.00 | 0.00 | 77 | 1014.0 |
| 20260505075004 | 51 | 6 | 3.5 | 7.8 | 0.00 | 0.00 | 0.00 | 81 | 1014.1 |
| 20260505074503 | 50 | 4 | 2.6 | 7.8 | 0.00 | 0.00 | 0.00 | 82 | 1014.0 |
| 20260505074003 | 49 | 359 | 2.6 | 7.0 | 0.00 | 0.00 | 0.00 | 85 | 1014.0 |
| 20260505073716 | 48 | 357 | 2.6 | 7.0 | 0.00 | 0.00 | 0.00 | 86 | 1014.0 |
| 20260505073003 | 47 | 354 | 2.6 | 7.0 | 0.00 | 0.00 | 0.00 | 89 | 1013.9 |
| 20260505072503 | 46 | 357 | 3.5 | 7.0 | 0.00 | 0.00 | 0.00 | 92 | 1013.9 |
| 20260505072004 | 46 | 349 | 2.6 | 7.0 | 0.00 | 0.00 | 0.00 | 96 | 1013.9 |
| 20260505071718 | 45 | 321 | 1.7 | 7.0 | 0.00 | 0.00 | 0.00 | 97 | 1014.0 |
| 20260505071004 | 44 | 234 | 0.9 | 2.6 | 0.00 | 0.00 | 0.00 | 97 | 1014.1 |
| 20260505070504 | 44 | 241 | 0.0 | 1.7 | 0.00 | 0.00 | 0.00 | 97 | 1014.1 |
| 20260505070004 | 44 | 211 | 0.0 | 1.7 | 0.00 | 0.00 | 0.00 | 97 | 1014.1 |
| 20260505065504 | 44 | 163 | 0.0 | 0.9 | 0.00 | 0.00 | 0.00 | 97 | 1014.1 |
| 20260505065004 | 44 | 0 | 0.0 | 0.0 | 0.00 | 0.00 | 0.00 | 97 | 1014.1 |
| 20260505064503 | 44 | 0 | 0.0 | 0.0 | 0.00 | 0.00 | 0.00 | 97 | 1014.1 |
| 20260505064004 | 44 | 0 | 0.0 | 0.0 | 0.00 | 0.00 | 0.00 | 97 | 1014.1 |
| 20260505063718 | 44 | 0 | 0.0 | 0.0 | 0.00 | 0.00 | 0.00 | 97 | 1014.1 |
| 20260505063004 | 43 | 0 | 0.0 | 0.0 | 0.00 | 0.00 | 0.00 | 97 | 1014.1 |
| 20260505062503 | 43 | 0 | 0.0 | 0.0 | 0.00 | 0.00 | 0.00 | 97 | 1014.1 |
| 20260505062004 | 43 | 0 | 0.0 | 0.0 | 0.00 | 0.00 | 0.00 | 97 | 1014.1 |
| 20260505061503 | 42 | 0 | 0.0 | 0.0 | 0.00 | 0.00 | 0.00 | 97 | 1014.1 |
| 20260505061004 | 42 | 156 | 0.0 | 0.9 | 0.00 | 0.00 | 0.00 | 97 | 1014.1 |
| 20260505060503 | 42 | 156 | 0.0 | 0.9 | 0.00 | 0.00 | 0.00 | 97 | 1014.2 |
| 20260505060004 | 42 | 156 | 0.0 | 0.9 | 0.00 | 0.00 | 0.00 | 97 | 1014.2 |
| 20260505055503 | 41 | 156 | 0.0 | 0.9 | 0.00 | 0.00 | 0.00 | 97 | 1014.2 |
| 20260505055003 | 41 | 156 | 0.0 | 0.9 | 0.00 | 0.00 | 0.00 | 97 | 1014.1 |
| 20260505054503 | 41 | 156 | 0.0 | 0.9 | 0.00 | 0.00 | 0.00 | 97 | 1014.1 |
| 20260505054004 | 40 | 157 | 0.0 | 0.9 | 0.00 | 0.00 | 0.00 | 96 | 1014.1 |
| 20260505053503 | 40 | 156 | 0.0 | 0.9 | 0.00 | 0.00 | 0.00 | 96 | 1014.1 |
| 20260505053216 | 40 | 163 | 0.0 | 1.7 | 0.00 | 0.00 | 0.00 | 96 | 1014.1 |
| 20260505052504 | 40 | 176 | 0.0 | 1.7 | 0.00 | 0.00 | 0.00 | 96 | 1014.1 |
| 20260505052003 | 39 | 193 | 0.0 | 0.9 | 0.00 | 0.00 | 0.00 | 96 | 1014.1 |